Location: Unspecified
(0.0000°N, 0.0000°E)
Time: 17:55:42
(UTC+00:00)

Courier 1B Rocket - Visible Passes

Search period start: 18 January 2020 00:00
Search period end: 28 January 2020 00:00
Orbit: 920 x 1202 km, 28.2° (Epoch: 18 January)

Date Brightness Start Highest point End Pass type
(mag) Time Alt. Az. Time Alt. Az. Time Alt. Az.
18 Jan 6.7 19:55:19 10° NNW 19:57:05 15° N 19:57:05 15° N visible
19 Jan 6.7 18:55:54 10° N 18:58:29 13° NNE 19:00:25 11° NE visible
19 Jan 7.2 20:46:15 10° NW 20:46:50 13° NW 20:46:50 13° NW visible
20 Jan 5.9 19:45:50 10° NNW 19:50:16 28° NNE 19:50:16 28° NNE visible
21 Jan 8.0 05:24:51 10° S 05:26:20 11° SSE 05:27:49 10° SSE visible
21 Jan 6.3 18:45:45 10° NNW 18:50:06 19° NNE 18:53:49 12° ENE visible
21 Jan 6.3 20:37:21 10° NW 20:40:15 29° NW 20:40:15 29° NW visible
22 Jan 5.2 19:36:41 10° NW 19:42:39 46° NNE 19:43:54 41° ENE visible
22 Jan 7.5 21:30:01 10° W 21:30:20 12° W 21:30:20 12° W visible
23 Jan 7.7 05:13:53 10° SSW 05:18:07 15° SSE 05:22:20 10° SE visible
23 Jan 5.8 18:36:14 10° NNW 18:41:36 30° NNE 18:47:03 10° E visible
23 Jan 5.3 20:28:46 10° WNW 20:34:06 62° W 20:34:06 62° W visible
24 Jan 7.9 04:14:44 10° S 04:16:18 11° SSE 04:17:53 10° SSE visible
24 Jan 4.8 19:27:48 10° NW 19:34:01 75° NNE 19:37:54 25° ESE visible
24 Jan 7.1 21:22:08 10° W 21:24:22 20° WSW 21:24:22 20° WSW visible
25 Jan 7.6 05:03:59 10° SSW 05:09:41 22° SSE 05:15:25 10° ESE visible
25 Jan 5.2 18:27:03 10° NW 18:33:01 47° NNE 18:39:04 10° ESE visible
25 Jan 5.8 20:20:31 10° W 20:26:26 44° SSW 20:28:13 36° S visible
26 Jan 7.7 04:03:53 10° S 04:08:02 15° SSE 04:12:16 10° SE visible
26 Jan 5.2 19:19:13 10° WNW 19:25:23 69° SSW 19:31:44 10° SE visible
26 Jan 7.1 21:14:47 10° WSW 21:18:30 19° SSW 21:18:30 19° SSW visible
27 Jan 7.9 03:05:11 10° S 03:06:18 10° SSE 03:07:25 10° SSE visible
27 Jan 7.0 04:54:26 10° SSW 05:01:06 31° SSE 05:07:51 10° E visible
27 Jan 6.6 20:12:40 10° W 20:17:54 28° SSW 20:22:14 14° SSE visible
